CW3340 Weather Reports


time (UTC)temp
C
wind
direction
speed
KPH
gust
KPH
rain 1hr
cm
rain 24hr
cm
rain mn
cm
humidity
%
barometer
mb
20260504202104 16 175 16.1 37.0 0.00 0.00 0.00 65 1010.4
20260504201604 16 186 19.3 37.0 0.00 0.00 0.00 64 1010.4
20260504201105 16 187 14.5 38.6 0.00 0.00 0.00 65 1010.5
20260504200605 16 188 19.3 38.6 0.00 0.00 0.00 64 1010.5
20260504200105 16 196 19.3 38.6 0.00 0.00 0.00 64 1010.6
20260504195605 16 174 17.7 32.2 0.00 0.00 0.00 64 1010.5
20260504195104 16 215 16.1 32.2 0.00 0.00 0.00 64 1010.6
20260504194604 17 184 14.5 37.0 0.00 0.00 0.00 63 1010.6
20260504194105 17 188 14.5 40.2 0.00 0.00 0.00 62 1010.7
20260504193606 17 189 12.9 40.2 0.00 0.00 0.00 62 1010.7
20260504193104 17 172 17.7 37.0 0.00 0.00 0.00 61 1010.7
20260504192605 17 193 19.3 32.2 0.00 0.00 0.00 60 1010.8
20260504192104 17 224 16.1 29.0 0.00 0.00 0.00 59 1010.8
20260504191605 18 200 11.3 35.4 0.00 0.00 0.00 61 1010.9
20260504191105 17 196 9.7 35.4 0.00 0.00 0.00 61 1011.0
20260504190604 17 187 14.5 32.2 0.00 0.00 0.00 60 1011.0
20260504190105 18 205 12.9 29.0 0.00 0.00 0.00 59 1011.1
20260504185606 18 193 12.9 32.2 0.00 0.00 0.00 60 1011.3
20260504185105 18 198 16.1 32.2 0.00 0.00 0.00 59 1011.2
20260504184605 18 179 14.5 27.4 0.00 0.00 0.00 59 1011.3
20260504184104 18 181 8.0 35.4 0.00 0.00 0.00 60 1011.3
20260504183605 18 176 14.5 35.4 0.00 0.00 0.00 58 1011.4
20260504183104 18 188 16.1 25.7 0.00 0.00 0.00 59 1011.4
20260504182605 18 199 8.0 25.7 0.00 0.00 0.00 58 1011.4
20260504182104 18 217 11.3 25.7 0.00 0.00 0.00 58 1011.5
20260504181605 18 179 14.5 25.7 0.00 0.00 0.00 59 1011.5
20260504181105 18 185 12.9 25.7 0.00 0.00 0.00 59 1011.6
20260504180604 18 186 14.5 25.7 0.00 0.00 0.00 59 1011.7
20260504180106 18 187 12.9 25.7 0.00 0.00 0.00 59 1011.7
20260504175605 18 189 14.5 25.7 0.00 0.00 0.00 59 1011.7
20260504175104 18 183 11.3 24.1 0.00 0.00 0.00 58 1011.8
20260504174604 18 181 11.3 24.1 0.00 0.00 0.00 59 1011.7
20260504174105 18 175 16.1 25.7 0.00 0.00 0.00 60 1011.8
20260504173605 18 178 16.1 25.7 0.00 0.00 0.00 60 1011.9
20260504173104 18 180 11.3 27.4 0.00 0.00 0.00 60 1011.9
20260504172605 18 178 9.7 27.4 0.00 0.00 0.00 59 1011.9
20260504172104 18 181 14.5 25.7 0.00 0.00 0.00 58 1012.0
20260504171605 18 189 14.5 25.7 0.00 0.00 0.00 57 1012.0
20260504171104 19 205 8.0 22.5 0.00 0.00 0.00 55 1012.0
20260504170605 18 195 11.3 25.7 0.00 0.00 0.00 55 1012.1
20260504170106 18 198 12.9 25.7 0.00 0.00 0.00 55 1012.2
20260504160105 18 165 9.7 27.4 0.00 0.00 0.00 51 1012.8
20260504151104 18 201 9.7 22.5 0.00 0.00 0.00 44 1013.4
20260504150605 18 189 6.4 22.5 0.00 0.00 0.00 44 1013.5
20260504150105 18 149 8.0 27.4 0.00 0.00 0.00 45 1013.5
20260504141104 16 253 12.9 27.4 0.00 0.00 0.00 48 1013.6
20260504140604 16 258 17.7 27.4 0.00 0.00 0.00 47 1013.7
20260504140106 16 3 8.0 22.5 0.00 0.00 0.00 49 1013.7
20260504130605 14 273 8.0 27.4 0.00 0.00 0.00 59 1014.2
20260504130106 13 305 14.5 27.4 0.00 0.00 0.00 59 1014.3
20260504120106 12 238 9.7 22.5 0.00 0.00 0.00 63 1014.5
20260504110605 10 244 8.0 12.9 0.00 0.00 0.00 66 1014.6
20260504110106 10 247 3.2 9.7 0.00 0.00 0.00 67 1014.6
20260504100605 10 239 8.0 19.3 0.00 0.00 0.00 65 1014.4
20260504100106 10 212 9.7 19.3 0.00 0.00 0.00 65 1014.4
20260504090106 10 274 9.7 24.1 0.00 0.00 0.00 63 1014.0
20260504081605 10 254 6.4 19.3 0.00 0.00 0.00 59 1013.8
20260504081105 10 261 8.0 19.3 0.00 0.00 0.00 60 1013.8
20260504080605 10 269 4.8 22.5 0.00 0.00 0.00 61 1013.7
20260504080106 10 275 9.7 22.5 0.00 0.00 0.00 63 1013.7
20260504070106 11 257 8.0 14.5 0.00 0.00 0.00 59 1013.3
20260504060106 11 246 8.0 19.3 0.00 0.00 0.00 57 1013.3
20260504050605 11 255 9.7 19.3 0.00 0.00 0.00 60 1013.0
20260504050106 11 228 8.0 19.3 0.00 0.00 0.00 58 1013.0
20260504045605 11 263 8.0 19.3 0.00 0.00 0.00 57 1013.0
20260504045105 11 256 8.0 19.3 0.00 0.00 0.00 58 1013.0
20260504044605 11 257 8.0 19.3 0.00 0.00 0.00 59 1012.9
20260504044105 11 305 6.4 12.9 0.00 0.00 0.00 60 1012.9
20260504043605 11 260 4.8 12.9 0.00 0.00 0.00 60 1012.9
20260504043105 11 273 4.8 12.9 0.00 0.00 0.00 60 1012.9
20260504042605 11 274 6.4 12.9 0.00 0.00 0.00 59 1012.9
20260504042105 11 272 8.0 14.5 0.00 0.00 0.00 58 1012.9
20260504041605 11 255 8.0 19.3 0.00 0.00 0.00 57 1012.8
20260504041105 11 243 8.0 19.3 0.00 0.00 0.00 56 1012.8
20260504040605 11 253 8.0 14.5 0.00 0.00 0.00 56 1012.8
20260504040106 11 250 4.8 19.3 0.00 0.00 0.00 56 1012.8
20260504035605 12 251 6.4 19.3 0.00 0.00 0.00 55 1012.7
20260504035105 12 256 9.7 19.3 0.00 0.00 0.00 54 1012.7
20260504034605 12 199 6.4 16.1 0.00 0.00 0.00 53 1012.8
20260504034105 12 244 8.0 16.1 0.00 0.00 0.00 53 1012.7
20260504033605 12 302 8.0 11.3 0.00 0.00 0.00 52 1012.6
20260504033105 12 234 4.8 12.9 0.00 0.00 0.00 52 1012.6
20260504032605 12 247 8.0 12.9 0.00 0.00 0.00 52 1012.5
20260504032105 12 228 4.8 11.3 0.00 0.00 0.00 52 1012.6
20260504031605 12 216 3.2 11.3 0.00 0.00 0.00 52 1012.6
20260504031105 12 232 6.4 11.3 0.00 0.00 0.00 52 1012.5
20260504030605 11 234 3.2 11.3 0.00 0.00 0.00 54 1012.5
20260504030106 12 214 3.2 14.5 0.00 0.00 0.00 55 1012.5
20260504025605 12 238 4.8 14.5 0.00 0.00 0.00 56 1012.5
20260504025105 12 252 3.2 11.3 0.00 0.00 0.00 56 1012.5
20260504024605 12 266 4.8 11.3 0.00 0.00 0.00 57 1012.5
20260504024105 12 251 3.2 12.9 0.00 0.00 0.00 57 1012.6
20260504023605 12 249 4.8 12.9 0.00 0.00 0.00 56 1012.6
20260504023105 12 230 4.8 11.3 0.00 0.00 0.00 55 1012.6
20260504022605 12 241 4.8 11.3 0.00 0.00 0.00 54 1012.6
20260504022105 12 257 3.2 11.3 0.00 0.00 0.00 52 1012.6
20260504021605 12 231 6.4 11.3 0.00 0.00 0.00 53 1012.6
20260504021105 12 254 1.6 8.0 0.00 0.00 0.00 53 1012.6
20260504020605 12 214 3.2 8.0 0.00 0.00 0.00 53 1012.6
20260504020106 11 214 3.2 4.8 0.00 0.00 0.00 51 1012.5
20260504015605 11 227 3.2 4.8 0.00 0.00 0.00 50 1012.5
20260504015105 11 243 3.2 4.8 0.00 0.00 0.00 49 1012.4
20260504014605 12 227 3.2 4.8 0.00 0.00 0.00 48 1012.4
20260504014105 12 227 1.6 4.8 0.00 0.00 0.00 47 1012.4
20260504013605 12 227 1.6 4.8 0.00 0.00 0.00 46 1012.4
20260504013105 12 238 1.6 4.8 0.00 0.00 0.00 46 1012.3
20260504012605 12 209 1.6 4.8 0.00 0.00 0.00 45 1012.2
20260504012105 12 217 3.2 4.8 0.00 0.00 0.00 43 1012.1
20260504011605 12 263 1.6 4.8 0.00 0.00 0.00 41 1012.1
20260504011105 12 263 1.6 4.8 0.00 0.00 0.00 40 1012.0
20260504010605 13 247 1.6 4.8 0.00 0.00 0.00 40 1011.9
20260504010106 13 259 1.6 9.7 0.00 0.00 0.00 38 1011.9
20260504005605 13 259 1.6 9.7 0.00 0.00 0.00 36 1011.9
20260504005105 13 244 4.8 4.8 0.00 0.00 0.00 34 1011.8
20260504004605 13 238 3.2 4.8 0.00 0.00 0.00 33 1011.8
20260504004105 13 284 1.6 4.8 0.00 0.00 0.00 33 1011.7
20260504003605 13 277 3.2 4.8 0.00 0.00 0.00 32 1011.6
20260504003105 13 290 3.2 4.8 0.00 0.00 0.00 32 1011.5
20260504002605 14 302 3.2 4.8 0.00 0.00 0.00 31 1011.4
20260504002105 14 282 3.2 12.9 0.00 0.00 0.00 30 1011.3
20260504001606 14 274 3.2 16.1 0.00 0.00 0.00 30 1011.3
20260504001105 14 314 3.2 16.1 0.00 0.00 0.00 30 1011.2
20260504000605 14 290 3.2 14.5 0.00 0.00 0.00 30 1011.1
20260504000106 14 258 3.2 16.1 0.00 0.00 0.00 30 1011.1
20260503235605 15 300 9.7 16.1 0.00 0.00 0.00 29 1011.0
20260503235105 15 297 9.7 16.1 0.00 0.00 0.00 29 1010.9
20260503234605 15 290 8.0 16.1 0.00 0.00 0.00 28 1010.9
20260503234105 15 289 6.4 19.3 0.00 0.00 0.00 28 1010.9
20260503233605 15 278 6.4 19.3 0.00 0.00 0.00 28 1010.8
20260503233105 15 332 8.0 19.3 0.00 0.00 0.00 28 1010.8
20260503232605 15 304 9.7 20.9 0.00 0.00 0.00 28 1010.7
20260503232105 15 331 11.3 29.0 0.00 0.00 0.00 27 1010.6
20260503231605 15 317 14.5 29.0 0.00 0.00 0.00 27 1010.6
20260503231105 15 317 14.5 27.4 0.00 0.00 0.00 27 1010.6
20260503230605 15 299 11.3 27.4 0.00 0.00 0.00 27 1010.5
20260503230106 15 292 9.7 25.7 0.00 0.00 0.00 27 1010.5
20260503225605 15 298 9.7 25.7 0.00 0.00 0.00 26 1010.5
20260503225105 15 314 9.7 24.1 0.00 0.00 0.00 26 1010.5
20260503224605 16 325 8.0 19.3 0.00 0.00 0.00 26 1010.6
20260503224105 16 319 6.4 22.5 0.00 0.00 0.00 26 1010.4
20260503223605 16 285 8.0 24.1 0.00 0.00 0.00 26 1010.4
20260503223105 16 292 6.4 27.4 0.00 0.00 0.00 26 1010.4
20260503222605 16 302 11.3 27.4 0.00 0.00 0.00 26 1010.3
20260503222105 16 307 8.0 27.4 0.00 0.00 0.00 26 1010.3
20260503221605 16 295 11.3 24.1 0.00 0.00 0.00 25 1010.4
20260503221105 16 295 8.0 32.2 0.00 0.00 0.00 26 1010.4
20260503220605 16 318 9.7 33.8 0.00 0.00 0.00 26 1010.4
20260503220106 16 343 14.5 33.8 0.00 0.00 0.00 26 1010.5
20260503215605 16 289 19.3 29.0 0.00 0.00 0.00 26 1010.4
20260503215105 16 314 16.1 27.4 0.00 0.00 0.00 26 1010.4
20260503214605 16 328 9.7 29.0 0.00 0.00 0.00 27 1010.4
20260503214105 16 303 16.1 37.0 0.00 0.00 0.00 26 1010.4
20260503213605 16 304 16.1 37.0 0.00 0.00 0.00 27 1010.4
20260503213105 16 312 14.5 37.0 0.00 0.00 0.00 26 1010.3
20260503212605 16 312 20.9 37.0 0.00 0.00 0.00 26 1010.3
20260503212105 16 270 22.5 37.0 0.00 0.00 0.00 26 1010.1
20260503211607 16 319 12.9 29.0 0.00 0.00 0.00 27 1010.2
20260503211105 16 295 11.3 32.2 0.00 0.00 0.00 27 1010.1
20260503210605 16 335 16.1 32.2 0.00 0.00 0.00 27 1010.1
20260503210106 16 332 11.3 32.2 0.00 0.00 0.00 27 1010.0
20260503205605 15 11 11.3 37.0 0.00 0.00 0.00 27 1010.1
20260503205105 15 286 16.1 37.0 0.00 0.00 0.00 27 1010.1
20260503204605 15 293 20.9 45.1 0.00 0.00 0.00 27 1010.1
20260503204105 15 306 19.3 45.1 0.00 0.00 0.00 27 1010.2
20260503203605 15 325 12.9 35.4 0.00 0.00 0.00 28 1010.1
20260503203105 15 324 11.3 35.4 0.00 0.00 0.00 28 1010.1
20260503202605 15 311 16.1 32.2 0.00 0.00 0.00 28 1010.2